Time,TemperatureF,DewpointF,PressureIn,WindDirection,WindDirectionDegrees,WindSpeedMPH,WindSpeedGustMPH,Humidity,HourlyPrecipIn,Conditions,Clouds,dailyrainin,SoftwareType,DateUTC
2013-03-01 00:02:00,20.0,17.0,-100.00,North,355,2.0,6.0,88,0.00,,,-99.99,,2013-03-01 06:02:00,
2013-03-01 00:11:00,20.0,17.0,-100.00,North,355,2.0,6.0,88,0.00,,,-99.99,,2013-03-01 06:11:00,
2013-03-01 00:21:00,20.0,17.0,-100.00,NNW,345,3.0,6.0,88,0.00,,,-99.99,,2013-03-01 06:21:00,
2013-03-01 00:32:00,20.0,17.0,-100.00,North,5,3.0,6.0,89,0.00,,,-99.99,,2013-03-01 06:32:00,
2013-03-01 00:42:00,19.0,17.0,-100.00,NNW,335,4.0,7.0,89,0.00,,,-99.99,,2013-03-01 06:42:00,
2013-03-01 00:52:00,19.0,17.0,-100.00,NNW,335,4.0,7.0,89,0.00,,,-99.99,,2013-03-01 06:52:00,
2013-03-01 01:02:00,19.0,17.0,-100.00,NNW,335,2.0,6.0,89,0.00,,,-99.99,,2013-03-01 07:02:00,
2013-03-01 01:11:00,19.0,17.0,-100.00,NNW,335,2.0,6.0,89,0.00,,,-99.99,,2013-03-01 07:11:00,
2013-03-01 01:22:00,18.0,16.0,-100.00,NW,320,5.0,6.0,90,0.00,,,-99.99,,2013-03-01 07:22:00,
2013-03-01 01:32:00,18.0,16.0,-100.00,NNW,330,4.0,6.0,91,0.00,,,-99.99,,2013-03-01 07:32:00,
2013-03-01 01:42:00,18.0,16.0,-100.00,NW,315,4.0,6.0,92,0.00,,,-99.99,,2013-03-01 07:42:00,
2013-03-01 01:52:00,18.0,16.0,-100.00,NW,315,4.0,6.0,92,0.00,,,-99.99,,2013-03-01 07:52:00,
2013-03-01 02:02:00,17.0,15.0,-100.00,NW,320,5.0,8.0,92,0.00,,,-99.99,,2013-03-01 08:02:00,
2013-03-01 02:12:00,17.0,15.0,-100.00,NW,320,5.0,8.0,92,0.00,,,-99.99,,2013-03-01 08:12:00,
2013-03-01 02:22:00,17.0,15.0,-100.00,NW,325,4.0,6.0,93,0.00,,,-99.99,,2013-03-01 08:22:00,
2013-03-01 02:32:00,16.0,15.0,-100.00,NNW,330,3.0,5.0,94,0.00,,,-99.99,,2013-03-01 08:32:00,
2013-03-01 02:42:00,16.0,14.0,-100.00,NW,325,2.0,4.0,94,0.00,,,-99.99,,2013-03-01 08:42:00,
2013-03-01 02:52:00,16.0,14.0,-100.00,NW,325,2.0,4.0,94,0.00,,,-99.99,,2013-03-01 08:52:00,
2013-03-01 03:02:00,16.0,14.0,-100.00,NW,320,2.0,4.0,94,0.00,,,-99.99,,2013-03-01 09:02:00,
2013-03-01 03:12:00,16.0,14.0,-100.00,NW,320,2.0,4.0,94,0.00,,,-99.99,,2013-03-01 09:12:00,
2013-03-01 03:22:00,15.0,14.0,-100.00,NW,320,4.0,4.0,94,0.00,,,-99.99,,2013-03-01 09:22:00,
2013-03-01 03:32:00,15.0,14.0,-100.00,NW,325,3.0,4.0,95,0.00,,,-99.99,,2013-03-01 09:32:00,
2013-03-01 03:42:00,15.0,14.0,-100.00,North,0,2.0,4.0,95,0.00,,,-99.99,,2013-03-01 09:42:00,
2013-03-01 03:52:00,15.0,14.0,-100.00,North,0,2.0,4.0,95,0.00,,,-99.99,,2013-03-01 09:52:00,
2013-03-01 04:02:00,15.0,14.0,-100.00,NW,315,4.0,4.0,95,0.00,,,-99.99,,2013-03-01 10:02:00,
2013-03-01 04:11:00,15.0,14.0,-100.00,NW,315,4.0,4.0,95,0.00,,,-99.99,,2013-03-01 10:11:00,
2013-03-01 04:21:00,14.0,13.0,-100.00,NNW,330,4.0,6.0,96,0.00,,,-99.99,,2013-03-01 10:21:00,
2013-03-01 04:32:00,14.0,13.0,-100.00,North,355,3.0,6.0,96,0.00,,,-99.99,,2013-03-01 10:32:00,
2013-03-01 04:42:00,13.0,12.0,-100.00,NNW,340,2.0,3.0,96,0.00,,,-99.99,,2013-03-01 10:42:00,
2013-03-01 04:52:00,13.0,12.0,-100.00,NNW,340,2.0,3.0,96,0.00,,,-99.99,,2013-03-01 10:52:00,
2013-03-01 05:01:00,13.0,12.0,-100.00,North,0,1.0,3.0,96,0.00,,,-99.99,,2013-03-01 11:01:00,
2013-03-01 05:11:00,13.0,12.0,-100.00,North,0,1.0,3.0,96,0.00,,,-99.99,,2013-03-01 11:11:00,
2013-03-01 05:22:00,12.0,11.0,-100.00,North,0,1.0,3.0,96,0.00,,,-99.99,,2013-03-01 11:22:00,
2013-03-01 05:32:00,11.0,11.0,-100.00,North,0,1.0,3.0,96,0.00,,,-99.99,,2013-03-01 11:32:00,
2013-03-01 05:42:00,11.0,10.0,-100.00,North,0,1.0,2.0,96,0.00,,,-99.99,,2013-03-01 11:42:00,
2013-03-01 05:52:00,11.0,10.0,-100.00,North,0,1.0,2.0,96,0.00,,,-99.99,,2013-03-01 11:52:00,
2013-03-01 06:01:00,10.0,10.0,-100.00,North,0,1.0,2.0,97,0.00,,,-99.99,,2013-03-01 12:01:00,
2013-03-01 06:11:00,10.0,10.0,-100.00,North,0,1.0,2.0,97,0.00,,,-99.99,,2013-03-01 12:11:00,
2013-03-01 06:21:00,10.0,9.0,-100.00,North,0,0.0,1.0,97,0.00,,,-99.99,,2013-03-01 12:21:00,
2013-03-01 06:32:00,9.0,9.0,-100.00,North,0,1.0,1.0,97,0.00,,,-99.99,,2013-03-01 12:32:00,
2013-03-01 06:42:00,10.0,9.0,-100.00,WNW,290,1.0,2.0,98,0.00,,,-99.99,,2013-03-01 12:42:00,
2013-03-01 06:52:00,10.0,9.0,-100.00,WNW,290,1.0,2.0,98,0.00,,,-99.99,,2013-03-01 12:52:00,
2013-03-01 07:01:00,9.0,9.0,-100.00,WNW,290,0.0,1.0,98,0.00,,,-99.99,,2013-03-01 13:01:00,
2013-03-01 07:11:00,9.0,9.0,-100.00,WNW,290,0.0,1.0,98,0.00,,,-99.99,,2013-03-01 13:11:00,
2013-03-01 07:21:00,8.0,8.0,-100.00,WNW,290,3.0,3.0,98,0.00,,,-99.99,,2013-03-01 13:21:00,
2013-03-01 07:32:00,8.0,8.0,-100.00,WNW,295,1.0,2.0,98,0.00,,,-99.99,,2013-03-01 13:32:00,
2013-03-01 07:42:00,9.0,8.0,-100.00,WNW,295,2.0,2.0,98,0.00,,,-99.99,,2013-03-01 13:42:00,
2013-03-01 07:52:00,9.0,8.0,-100.00,WNW,295,2.0,2.0,98,0.00,,,-99.99,,2013-03-01 13:52:00,
2013-03-01 08:01:00,9.0,9.0,-100.00,WNW,295,1.0,2.0,98,0.00,,,-99.99,,2013-03-01 14:01:00,
2013-03-01 08:11:00,9.0,9.0,-100.00,WNW,295,1.0,2.0,98,0.00,,,-99.99,,2013-03-01 14:11:00,
2013-03-01 08:21:00,11.0,11.0,-100.00,WNW,300,2.0,2.0,98,0.00,,,-99.99,,2013-03-01 14:21:00,
2013-03-01 08:32:00,12.0,12.0,-100.00,WNW,300,3.0,4.0,98,0.00,,,-99.99,,2013-03-01 14:32:00,
2013-03-01 08:42:00,14.0,13.0,-100.00,WNW,300,2.0,2.0,98,0.00,,,-99.99,,2013-03-01 14:42:00,
2013-03-01 08:52:00,14.0,13.0,-100.00,WNW,300,2.0,2.0,98,0.00,,,-99.99,,2013-03-01 14:52:00,
2013-03-01 09:01:00,15.0,15.0,-100.00,NW,315,1.0,2.0,98,0.00,,,-99.99,,2013-03-01 15:01:00,
2013-03-01 09:11:00,15.0,15.0,-100.00,NW,315,1.0,2.0,98,0.00,,,-99.99,,2013-03-01 15:11:00,
2013-03-01 09:21:00,17.0,17.0,-100.00,NW,310,0.0,1.0,98,0.00,,,-99.99,,2013-03-01 15:21:00,
2013-03-01 09:31:00,18.0,17.0,-100.00,NW,310,1.0,1.0,98,0.00,,,-99.99,,2013-03-01 15:31:00,
2013-03-01 09:42:00,20.0,19.0,-100.00,NW,315,0.0,1.0,96,0.00,,,-99.99,,2013-03-01 15:42:00,
2013-03-01 09:52:00,20.0,19.0,-100.00,NW,315,0.0,1.0,96,0.00,,,-99.99,,2013-03-01 15:52:00,
2013-03-01 10:01:00,22.0,20.0,-100.00,SE,145,0.0,2.0,94,0.00,,,-99.99,,2013-03-01 16:01:00,
2013-03-01 10:11:00,22.0,20.0,-100.00,SE,145,0.0,2.0,94,0.00,,,-99.99,,2013-03-01 16:11:00,
2013-03-01 10:21:00,24.0,20.0,-100.00,ESE,105,1.0,2.0,87,0.00,,,-99.99,,2013-03-01 16:21:00,
2013-03-01 10:32:00,24.0,19.0,-100.00,East,100,2.0,4.0,83,0.00,,,-99.99,,2013-03-01 16:32:00,
2013-03-01 10:42:00,25.0,19.0,-100.00,ENE,75,0.0,4.0,78,0.00,,,-99.99,,2013-03-01 16:42:00,
2013-03-01 10:51:00,25.0,19.0,-100.00,ENE,75,0.0,4.0,78,0.00,,,-99.99,,2013-03-01 16:51:00,
2013-03-01 11:01:00,26.0,19.0,-100.00,ESE,110,2.0,5.0,74,0.00,,,-99.99,,2013-03-01 17:01:00,
2013-03-01 11:11:00,26.0,19.0,-100.00,ESE,110,2.0,5.0,74,0.00,,,-99.99,,2013-03-01 17:11:00,
2013-03-01 11:21:00,26.0,17.0,-100.00,SE,140,4.0,6.0,69,0.00,,,-99.99,,2013-03-01 17:21:00,
2013-03-01 11:32:00,26.0,17.0,-100.00,South,175,2.0,6.0,68,0.00,,,-99.99,,2013-03-01 17:32:00,
2013-03-01 11:41:00,28.0,17.0,-100.00,ESE,110,4.0,5.0,63,0.00,,,-99.99,,2013-03-01 17:41:00,
2013-03-01 11:52:00,28.0,17.0,-100.00,ESE,110,4.0,5.0,63,0.00,,,-99.99,,2013-03-01 17:52:00,
2013-03-01 12:01:00,28.0,17.0,-100.00,ESE,110,4.0,5.0,62,0.00,,,-99.99,,2013-03-01 18:01:00,
2013-03-01 12:12:00,28.0,17.0,-100.00,ESE,110,4.0,5.0,62,0.00,,,-99.99,,2013-03-01 18:12:00,
2013-03-01 12:22:00,29.0,17.0,-100.00,SSW,200,2.0,6.0,60,0.00,,,-99.99,,2013-03-01 18:22:00,
2013-03-01 12:32:00,30.0,17.0,-100.00,ESE,110,4.0,6.0,58,0.00,,,-99.99,,2013-03-01 18:32:00,
2013-03-01 12:42:00,31.0,17.0,-100.00,South,170,4.0,6.0,56,0.00,,,-99.99,,2013-03-01 18:42:00,
2013-03-01 12:52:00,31.0,17.0,-100.00,South,170,4.0,6.0,56,0.00,,,-99.99,,2013-03-01 18:52:00,
2013-03-01 13:01:00,30.0,16.0,-100.00,SE,130,3.0,7.0,56,0.00,,,-99.99,,2013-03-01 19:01:00,
2013-03-01 13:11:00,30.0,16.0,-100.00,SE,130,3.0,7.0,56,0.00,,,-99.99,,2013-03-01 19:11:00,
2013-03-01 13:21:00,30.0,16.0,-100.00,South,175,4.0,7.0,55,0.00,,,-99.99,,2013-03-01 19:21:00,
2013-03-01 13:32:00,30.0,16.0,-100.00,SW,235,3.0,6.0,55,0.00,,,-99.99,,2013-03-01 19:32:00,
2013-03-01 13:42:00,30.0,15.0,-100.00,West,265,3.0,6.0,54,0.00,,,-99.99,,2013-03-01 19:42:00,
2013-03-01 13:51:00,30.0,15.0,-100.00,West,265,3.0,6.0,54,0.00,,,-99.99,,2013-03-01 19:51:00,
2013-03-01 14:01:00,30.0,16.0,-100.00,West,265,3.0,6.0,54,0.00,,,-99.99,,2013-03-01 20:01:00,
2013-03-01 14:11:00,30.0,16.0,-100.00,West,265,3.0,6.0,54,0.00,,,-99.99,,2013-03-01 20:11:00,
2013-03-01 14:21:00,31.0,16.0,-100.00,WSW,255,2.0,6.0,54,0.00,,,-99.99,,2013-03-01 20:21:00,
2013-03-01 14:32:00,31.0,17.0,-100.00,SSW,195,4.0,8.0,54,0.00,,,-99.99,,2013-03-01 20:32:00,
2013-03-01 14:42:00,31.0,16.0,-100.00,West,275,3.0,7.0,53,0.00,,,-99.99,,2013-03-01 20:42:00,
2013-03-01 14:52:00,31.0,16.0,-100.00,West,275,3.0,7.0,53,0.00,,,-99.99,,2013-03-01 20:52:00,
2013-03-01 15:01:00,30.0,16.0,-100.00,NNW,330,2.0,7.0,55,0.00,,,-99.99,,2013-03-01 21:01:00,
2013-03-01 15:11:00,30.0,16.0,-100.00,NNW,330,2.0,7.0,55,0.00,,,-99.99,,2013-03-01 21:11:00,
2013-03-01 15:21:00,30.0,16.0,-100.00,SW,220,3.0,6.0,54,0.00,,,-99.99,,2013-03-01 21:21:00,
2013-03-01 15:32:00,31.0,16.0,-100.00,South,175,3.0,5.0,53,0.00,,,-99.99,,2013-03-01 21:32:00,
2013-03-01 15:42:00,30.0,16.0,-100.00,West,280,4.0,6.0,54,0.00,,,-99.99,,2013-03-01 21:42:00,
2013-03-01 15:51:00,30.0,16.0,-100.00,West,280,4.0,6.0,54,0.00,,,-99.99,,2013-03-01 21:51:00,
2013-03-01 16:01:00,30.0,16.0,-100.00,West,275,4.0,7.0,56,0.00,,,-99.99,,2013-03-01 22:01:00,
2013-03-01 16:11:00,30.0,16.0,-100.00,West,275,4.0,7.0,56,0.00,,,-99.99,,2013-03-01 22:11:00,
2013-03-01 16:21:00,29.0,16.0,-100.00,West,275,4.0,7.0,57,0.00,,,-99.99,,2013-03-01 22:21:00,
2013-03-01 16:31:00,28.0,16.0,-100.00,West,265,4.0,6.0,58,0.00,,,-99.99,,2013-03-01 22:31:00,
2013-03-01 16:42:00,29.0,16.0,-100.00,WSW,240,2.0,7.0,59,0.00,,,-99.99,,2013-03-01 22:42:00,
2013-03-01 16:51:00,29.0,16.0,-100.00,WSW,240,2.0,7.0,59,0.00,,,-99.99,,2013-03-01 22:51:00,
2013-03-01 17:01:00,27.0,16.0,-100.00,NW,310,6.0,7.0,61,0.00,,,-99.99,,2013-03-01 23:01:00,
2013-03-01 17:11:00,27.0,16.0,-100.00,NW,310,6.0,7.0,61,0.00,,,-99.99,,2013-03-01 23:11:00,
2013-03-01 17:21:00,26.0,16.0,-100.00,NW,310,4.0,6.0,65,0.00,,,-99.99,,2013-03-01 23:21:00,
2013-03-01 17:31:00,27.0,17.0,-100.00,WNW,300,2.0,3.0,64,0.00,,,-99.99,,2013-03-01 23:31:00,
2013-03-01 17:41:00,27.0,16.0,-100.00,NNW,340,3.0,4.0,64,0.00,,,-99.99,,2013-03-01 23:41:00,
2013-03-01 17:52:00,27.0,16.0,-100.00,NNW,340,3.0,4.0,64,0.00,,,-99.99,,2013-03-01 23:52:00,
2013-03-01 18:02:00,26.0,16.0,-100.00,North,355,3.0,4.0,65,0.00,,,-99.99,,2013-03-02 00:02:00,
2013-03-01 18:11:00,26.0,16.0,-100.00,North,355,3.0,4.0,65,0.00,,,-99.99,,2013-03-02 00:11:00,
2013-03-01 18:21:00,24.0,15.0,-100.00,NNW,330,2.0,2.0,66,0.00,,,-99.99,,2013-03-02 00:21:00,
2013-03-01 18:32:00,23.0,14.0,-100.00,NNW,330,2.0,2.0,67,0.00,,,-99.99,,2013-03-02 00:32:00,
2013-03-01 18:42:00,21.0,13.0,-100.00,NNW,340,0.0,1.0,69,0.00,,,-99.99,,2013-03-02 00:42:00,
2013-03-01 18:52:00,21.0,13.0,-100.00,NNW,340,0.0,1.0,69,0.00,,,-99.99,,2013-03-02 00:52:00,
2013-03-01 19:01:00,20.0,12.0,-100.00,NNW,340,0.0,1.0,70,0.00,,,-99.99,,2013-03-02 01:01:00,
2013-03-01 19:11:00,20.0,12.0,-100.00,NNW,340,0.0,1.0,70,0.00,,,-99.99,,2013-03-02 01:11:00,
2013-03-01 19:21:00,19.0,12.0,-100.00,NNW,340,0.0,0.0,72,0.00,,,-99.99,,2013-03-02 01:21:00,
2013-03-01 19:31:00,19.0,12.0,-100.00,NNW,340,0.0,0.0,74,0.00,,,-99.99,,2013-03-02 01:31:00,
2013-03-01 19:41:00,18.0,12.0,-100.00,NNW,340,0.0,0.0,76,0.00,,,-99.99,,2013-03-02 01:41:00,
2013-03-01 19:51:00,18.0,12.0,-100.00,NNW,340,0.0,0.0,76,0.00,,,-99.99,,2013-03-02 01:51:00,
2013-03-01 20:01:00,17.0,12.0,-100.00,NNW,340,0.0,0.0,78,0.00,,,-99.99,,2013-03-02 02:01:00,
2013-03-01 20:11:00,17.0,12.0,-100.00,NNW,340,0.0,0.0,78,0.00,,,-99.99,,2013-03-02 02:11:00,
2013-03-01 20:21:00,16.0,11.0,-100.00,East,90,1.0,2.0,80,0.00,,,-99.99,,2013-03-02 02:21:00,
2013-03-01 20:32:00,16.0,11.0,-100.00,East,90,0.0,2.0,81,0.00,,,-99.99,,2013-03-02 02:32:00,
2013-03-01 20:42:00,15.0,11.0,-100.00,East,90,0.0,0.0,83,0.00,,,-99.99,,2013-03-02 02:42:00,
2013-03-01 20:52:00,15.0,11.0,-100.00,East,90,0.0,0.0,83,0.00,,,-99.99,,2013-03-02 02:52:00,
2013-03-01 21:01:00,15.0,11.0,-100.00,SSW,210,0.0,1.0,85,0.00,,,-99.99,,2013-03-02 03:01:00,
2013-03-01 21:11:00,15.0,11.0,-100.00,SSW,210,0.0,1.0,85,0.00,,,-99.99,,2013-03-02 03:11:00,
2013-03-01 21:21:00,13.0,10.0,-100.00,SE,140,1.0,2.0,87,0.00,,,-99.99,,2013-03-02 03:21:00,
2013-03-01 21:32:00,13.0,10.0,-100.00,SE,140,0.0,0.0,87,0.00,,,-99.99,,2013-03-02 03:32:00,
2013-03-01 21:42:00,13.0,10.0,-100.00,South,185,0.0,1.0,89,0.00,,,-99.99,,2013-03-02 03:42:00,
2013-03-01 21:52:00,13.0,10.0,-100.00,South,185,0.0,1.0,89,0.00,,,-99.99,,2013-03-02 03:52:00,
2013-03-01 22:01:00,12.0,10.0,-100.00,South,185,0.0,0.0,90,0.00,,,-99.99,,2013-03-02 04:01:00,
2013-03-01 22:11:00,12.0,10.0,-100.00,South,185,0.0,0.0,90,0.00,,,-99.99,,2013-03-02 04:11:00,
2013-03-01 22:21:00,11.0,9.0,-100.00,South,185,0.0,1.0,91,0.00,,,-99.99,,2013-03-02 04:21:00,
2013-03-01 22:32:00,11.0,9.0,-100.00,South,175,0.0,1.0,92,0.00,,,-99.99,,2013-03-02 04:32:00,
2013-03-01 22:42:00,10.0,8.0,-100.00,SE,135,1.0,2.0,92,0.00,,,-99.99,,2013-03-02 04:42:00,
2013-03-01 22:52:00,10.0,8.0,-100.00,SE,135,1.0,2.0,92,0.00,,,-99.99,,2013-03-02 04:52:00,
2013-03-01 23:01:00,10.0,8.0,-100.00,SSE,160,2.0,2.0,93,0.00,,,-99.99,,2013-03-02 05:01:00,
2013-03-01 23:12:00,10.0,8.0,-100.00,SSE,160,2.0,2.0,93,0.00,,,-99.99,,2013-03-02 05:12:00,
2013-03-01 23:22:00,10.0,9.0,-100.00,SE,140,0.0,2.0,94,0.00,,,-99.99,,2013-03-02 05:22:00,
2013-03-01 23:32:00,10.0,9.0,-100.00,SSE,150,0.0,1.0,94,0.00,,,-99.99,,2013-03-02 05:32:00,
2013-03-01 23:42:00,8.0,7.0,-100.00,SSW,200,0.0,1.0,94,0.00,,,-99.99,,2013-03-02 05:42:00,
2013-03-01 23:52:00,8.0,7.0,-100.00,SSW,200,0.0,1.0,94,0.00,,,-99.99,,2013-03-02 05:52:00,